SVA162 OPKC-OERK

Flight info

Callsign SVA162
Flight time 3h 11m
Altitude 38000
Route MELOM A454 TAPDO G652 TULBU M628 PEKEM DCT MEDPO DCT SITUK M321 NAGUB
Aircraft L101/H-SDFGHIRWXY/S

Departure

Time 2026-05-07 07:18
Airport Jinnah International Airport (OPKC)

Arrival

Time 2026-05-07 10:29
Airport King Khalid International Airport (OERK)
Time Latitude Longitude Altitude Speed Heading
2026-05-07 06:54 24.90209 67.16528 103 ft 0 kts 124°
2026-05-07 07:09 24.90210 67.16527 105 ft 2 kts 124°
2026-05-07 07:09 24.90220 67.16511 103 ft 3 kts 124°
2026-05-07 07:10 24.90230 67.16495 103 ft 3 kts 124°
2026-05-07 07:10 24.90240 67.16479 103 ft 3 kts 124°
2026-05-07 07:10 24.90250 67.16463 102 ft 2 kts 124°
2026-05-07 07:10 24.90260 67.16448 103 ft 2 kts 124°
2026-05-07 07:11 24.90269 67.16431 103 ft 3 kts 97°
2026-05-07 07:11 24.90266 67.16412 101 ft 3 kts 44°
2026-05-07 07:11 24.90265 67.16410 101 ft 0 kts 38°
2026-05-07 07:13 24.90271 67.16415 102 ft 2 kts 40°
2026-05-07 07:13 24.90285 67.16435 103 ft 5 kts 51°
2026-05-07 07:13 24.90306 67.16483 104 ft 9 kts 71°
2026-05-07 07:13 24.90328 67.16559 103 ft 12 kts 73°
2026-05-07 07:14 24.90354 67.16657 102 ft 14 kts 73°
2026-05-07 07:14 24.90382 67.16772 104 ft 17 kts 76°
2026-05-07 07:14 24.90413 67.16897 104 ft 16 kts 73°
2026-05-07 07:14 24.90455 67.17016 106 ft 17 kts 46°
2026-05-07 07:15 24.90552 67.17055 107 ft 15 kts 37°
2026-05-07 07:15 24.90593 67.17146 105 ft 13 kts 72°
2026-05-07 07:15 24.90623 67.17254 107 ft 16 kts 74°
2026-05-07 07:15 24.90660 67.17379 105 ft 17 kts 58°
2026-05-07 07:16 24.90753 67.17460 109 ft 17 kts 30°
2026-05-07 07:16 24.90775 67.17473 108 ft 1 kts 27°
2026-05-07 07:16 24.90792 67.17483 109 ft 3 kts 24°
2026-05-07 07:16 24.90823 67.17484 109 ft 5 kts 356°
2026-05-07 07:17 24.90845 67.17472 110 ft 2 kts 312°
2026-05-07 07:17 24.90858 67.17446 109 ft 5 kts 290°
2026-05-07 07:17 24.90858 67.17406 109 ft 0 kts 253°
2026-05-07 07:17 24.90845 67.17355 109 ft 36 kts 255°
2026-05-07 07:18 24.90691 67.16749 106 ft 127 kts 255°
2026-05-07 07:18 24.90380 67.15590 429 ft 179 kts 256°
2026-05-07 07:18 24.89988 67.14137 979 ft 213 kts 250°
2026-05-07 07:18 24.89493 67.12582 1984 ft 221 kts 250°
2026-05-07 07:19 24.88924 67.10987 2346 ft 230 kts 249°
2026-05-07 07:19 24.88154 67.09410 2420 ft 242 kts 233°
2026-05-07 07:19 24.86906 67.08100 3038 ft 256 kts 223°
2026-05-07 07:19 24.85477 67.06834 3570 ft 269 kts 220°
2026-05-07 07:20 24.83988 67.05569 3926 ft 269 kts 219°
2026-05-07 07:20 24.82485 67.04314 4537 ft 271 kts 219°
2026-05-07 07:20 24.81033 67.03001 5300 ft 274 kts 226°
2026-05-07 07:20 24.79850 67.01355 5989 ft 277 kts 243°
2026-05-07 07:21 24.79106 66.99399 6357 ft 278 kts 258°
2026-05-07 07:21 24.78871 66.97295 6493 ft 279 kts 271°
2026-05-07 07:21 24.78969 66.95157 6360 ft 278 kts 276°
2026-05-07 07:21 24.79077 66.93058 6537 ft 277 kts 275°
2026-05-07 07:22 24.79156 66.90936 6928 ft 275 kts 274°
2026-05-07 07:22 24.79243 66.88823 7506 ft 279 kts 277°
2026-05-07 07:22 24.79425 66.86688 8074 ft 281 kts 279°
2026-05-07 07:22 24.79617 66.84551 8758 ft 282 kts 279°
2026-05-07 07:23 24.80101 66.82509 9515 ft 278 kts 293°
2026-05-07 07:23 24.80854 66.80521 10548 ft 280 kts 296°
2026-05-07 07:23 24.81681 66.78545 11566 ft 286 kts 300°
2026-05-07 07:23 24.82737 66.76719 12408 ft 289 kts 313°
2026-05-07 07:24 24.84125 66.75096 12752 ft 293 kts 314°
2026-05-07 07:24 24.85481 66.73446 13034 ft 289 kts 315°
2026-05-07 07:24 24.86846 66.71811 13551 ft 292 kts 316°
2026-05-07 07:24 24.87773 66.70695 13890 ft 292 kts 315°
2026-05-07 07:25 24.91084 66.66902 15083 ft 298 kts 318°
2026-05-07 07:25 24.92605 66.65309 15415 ft 304 kts 321°
2026-05-07 07:25 24.94284 66.63875 15721 ft 310 kts 327°
2026-05-07 07:26 24.96139 66.62463 16117 ft 332 kts 326°
2026-05-07 07:26 24.97995 66.60895 16605 ft 341 kts 321°
2026-05-07 07:26 24.99193 66.59750 16942 ft 345 kts 319°
2026-05-07 07:26 25.00958 66.57928 17450 ft 351 kts 317°
2026-05-07 07:27 25.02722 66.56048 17997 ft 355 kts 316°
2026-05-07 07:27 25.04311 66.53932 18421 ft 360 kts 301°
2026-05-07 07:27 25.05225 66.51373 18810 ft 365 kts 286°
2026-05-07 07:27 25.05854 66.48625 19340 ft 372 kts 288°
2026-05-07 07:28 25.06680 66.45895 19884 ft 379 kts 292°
2026-05-07 07:28 25.07634 66.43162 20491 ft 384 kts 292°
2026-05-07 07:28 25.08523 66.40362 21122 ft 390 kts 290°
2026-05-07 07:28 25.09273 66.37503 21802 ft 394 kts 287°
2026-05-07 07:29 25.09953 66.34543 22512 ft 398 kts 287°
2026-05-07 07:29 25.10613 66.31572 23245 ft 401 kts 287°
2026-05-07 07:29 25.11287 66.28576 23892 ft 403 kts 287°
2026-05-07 07:29 25.11971 66.25568 24531 ft 406 kts 287°
2026-05-07 07:30 25.12657 66.22530 25179 ft 409 kts 287°
2026-05-07 07:30 25.13339 66.19470 25855 ft 411 kts 287°
2026-05-07 07:30 25.14019 66.16389 26557 ft 414 kts 286°
2026-05-07 07:30 25.14702 66.13289 27271 ft 417 kts 286°
2026-05-07 07:31 25.15386 66.10186 28018 ft 418 kts 286°
2026-05-07 07:31 25.16073 66.07062 28771 ft 419 kts 286°
2026-05-07 07:31 25.16763 66.03919 29548 ft 420 kts 286°
2026-05-07 07:31 25.17447 66.00798 30235 ft 420 kts 286°
2026-05-07 07:32 25.18135 65.97657 30879 ft 420 kts 285°
2026-05-07 07:32 25.18813 65.94556 31502 ft 420 kts 285°
2026-05-07 07:32 25.19498 65.91426 32130 ft 420 kts 285°
2026-05-07 07:32 25.20191 65.88252 32758 ft 420 kts 285°
2026-05-07 07:33 25.20869 65.85147 33367 ft 419 kts 285°
2026-05-07 07:33 25.21549 65.82025 33934 ft 418 kts 285°
2026-05-07 07:33 25.22227 65.78906 34433 ft 417 kts 284°
2026-05-07 07:33 25.22906 65.75788 34906 ft 417 kts 284°
2026-05-07 07:34 25.23582 65.72676 35375 ft 416 kts 284°
2026-05-07 07:34 25.24255 65.69577 35831 ft 416 kts 284°
2026-05-07 07:34 25.24931 65.66457 36260 ft 416 kts 284°
2026-05-07 07:34 25.25602 65.63360 36711 ft 416 kts 284°
2026-05-07 07:35 25.26278 65.60237 37125 ft 417 kts 284°
2026-05-07 07:35 25.26950 65.57129 37530 ft 419 kts 284°
2026-05-07 07:35 25.27639 65.53941 37641 ft 431 kts 283°
2026-05-07 07:36 25.29040 65.47444 37699 ft 438 kts 283°
2026-05-07 07:36 25.30448 65.40906 37738 ft 440 kts 283°
2026-05-07 07:37 25.31844 65.34336 37782 ft 438 kts 283°
2026-05-07 07:37 25.33209 65.27754 37790 ft 438 kts 283°
2026-05-07 07:38 25.34593 65.21183 37813 ft 438 kts 283°
2026-05-07 07:38 25.35979 65.14657 37788 ft 439 kts 283°
2026-05-07 07:39 25.37372 65.08096 37789 ft 439 kts 283°
2026-05-07 07:39 25.38766 65.01515 37778 ft 439 kts 283°
2026-05-07 07:40 25.40158 64.94938 37799 ft 439 kts 283°
2026-05-07 07:40 25.41388 64.88335 37750 ft 440 kts 273°
2026-05-07 07:40 25.41127 64.84981 37727 ft 440 kts 258°
2026-05-07 07:41 25.40264 64.81714 37812 ft 443 kts 257°
2026-05-07 07:41 25.38886 64.75078 37800 ft 443 kts 261°
2026-05-07 07:42 25.37465 64.68437 37785 ft 445 kts 257°
2026-05-07 07:42 25.35712 64.61866 37793 ft 446 kts 256°
2026-05-07 07:43 25.33926 64.55327 37792 ft 446 kts 256°
2026-05-07 07:43 25.32109 64.48731 37778 ft 446 kts 256°
2026-05-07 07:44 25.30296 64.42213 37789 ft 446 kts 256°
2026-05-07 07:44 25.28467 64.35659 37779 ft 446 kts 256°
2026-05-07 07:45 25.26636 64.29110 37797 ft 446 kts 255°
2026-05-07 07:45 25.24797 64.22551 37794 ft 446 kts 255°
2026-05-07 07:46 25.22953 64.15987 37798 ft 447 kts 255°
2026-05-07 07:46 25.21122 64.09481 37785 ft 446 kts 255°
2026-05-07 07:47 25.19274 64.02926 37787 ft 446 kts 255°
2026-05-07 07:47 25.17424 63.96374 37793 ft 447 kts 255°
2026-05-07 07:48 25.15569 63.89819 37790 ft 447 kts 255°
2026-05-07 07:48 25.13720 63.83300 37790 ft 447 kts 255°
2026-05-07 07:49 25.11861 63.76753 37787 ft 447 kts 255°
2026-05-07 07:49 25.09997 63.70202 37797 ft 448 kts 255°
2026-05-07 07:50 25.08124 63.63632 37783 ft 448 kts 255°
2026-05-07 07:50 25.06251 63.57077 37786 ft 448 kts 255°
2026-05-07 07:51 25.04385 63.50555 37797 ft 448 kts 255°
2026-05-07 07:51 25.02511 63.44016 37791 ft 448 kts 255°
2026-05-07 07:52 25.00629 63.37462 37787 ft 448 kts 254°
2026-05-07 07:52 24.98743 63.30908 37791 ft 449 kts 254°
2026-05-07 07:53 24.96852 63.24348 37790 ft 448 kts 254°
2026-05-07 07:53 24.94957 63.17786 37794 ft 448 kts 254°
2026-05-07 07:54 24.93075 63.11281 37790 ft 448 kts 254°
2026-05-07 07:54 24.91176 63.04730 37799 ft 448 kts 254°
2026-05-07 07:55 24.89275 62.98184 37795 ft 449 kts 254°
2026-05-07 07:55 24.87374 62.91650 37789 ft 448 kts 254°
2026-05-07 07:56 24.85467 62.85106 37795 ft 448 kts 254°
2026-05-07 07:56 24.83555 62.78556 37788 ft 449 kts 254°
2026-05-07 07:57 24.81642 62.72014 37796 ft 449 kts 254°
2026-05-07 07:57 24.79720 62.65454 37793 ft 449 kts 253°
2026-05-07 07:58 24.77812 62.58953 37783 ft 449 kts 253°
2026-05-07 07:58 24.75882 62.52390 37796 ft 451 kts 253°
2026-05-07 07:59 24.73951 62.45834 37790 ft 452 kts 253°
2026-05-07 07:59 24.72009 62.39251 37800 ft 452 kts 253°
2026-05-07 08:00 24.70070 62.32692 37792 ft 452 kts 253°
2026-05-07 08:00 24.68119 62.26104 37800 ft 452 kts 253°
2026-05-07 08:01 24.66171 62.19538 37799 ft 452 kts 253°
2026-05-07 08:01 24.64229 62.13003 37802 ft 453 kts 253°
2026-05-07 08:02 24.62271 62.06427 37800 ft 453 kts 253°
2026-05-07 08:02 24.60311 61.99856 37796 ft 453 kts 253°
2026-05-07 08:03 24.58343 61.93270 37796 ft 453 kts 253°
2026-05-07 08:03 24.56371 61.86680 37798 ft 453 kts 253°
2026-05-07 08:04 24.54407 61.80130 37798 ft 454 kts 253°
2026-05-07 08:04 24.52426 61.73536 37799 ft 454 kts 253°
2026-05-07 08:05 24.50450 61.66968 37798 ft 454 kts 253°
2026-05-07 08:05 24.48468 61.60390 37793 ft 454 kts 253°
2026-05-07 08:06 24.46481 61.53812 37793 ft 454 kts 253°
2026-05-07 08:06 24.44494 61.47243 37804 ft 454 kts 253°
2026-05-07 08:07 24.42512 61.40704 37808 ft 454 kts 253°
2026-05-07 08:07 24.40510 61.34132 37800 ft 454 kts 252°
2026-05-07 08:08 24.38349 61.27622 37805 ft 454 kts 250°
2026-05-07 08:08 24.36121 61.21135 37812 ft 454 kts 251°
2026-05-07 08:09 24.33992 61.14633 37807 ft 454 kts 251°
2026-05-07 08:09 24.31870 61.08102 37805 ft 454 kts 251°
2026-05-07 08:10 24.29761 61.01621 37811 ft 454 kts 251°
2026-05-07 08:10 24.27636 60.95088 37805 ft 454 kts 251°
2026-05-07 08:11 24.25512 60.88566 37813 ft 454 kts 251°
2026-05-07 08:11 24.23385 60.82045 37815 ft 454 kts 251°
2026-05-07 08:12 24.21261 60.75543 37810 ft 454 kts 251°
2026-05-07 08:12 24.19109 60.69020 37811 ft 455 kts 251°
2026-05-07 08:13 24.16957 60.62511 37818 ft 455 kts 251°
2026-05-07 08:13 24.14813 60.55995 37814 ft 455 kts 251°
2026-05-07 08:14 24.12678 60.49505 37819 ft 455 kts 251°
2026-05-07 08:14 24.10884 60.44058 37819 ft 455 kts 251°
2026-05-07 08:15 24.08745 60.37574 37815 ft 455 kts 251°
2026-05-07 08:15 24.06232 60.29969 37821 ft 455 kts 251°
2026-05-07 08:16 24.04441 60.24556 37820 ft 455 kts 251°
2026-05-07 08:16 24.02275 60.18021 37818 ft 455 kts 251°
2026-05-07 08:17 24.00130 60.11557 37818 ft 454 kts 251°
2026-05-07 08:17 23.97968 60.05056 37825 ft 455 kts 251°
2026-05-07 08:18 23.95808 59.98569 37822 ft 455 kts 250°
2026-05-07 08:18 23.93630 59.92039 37822 ft 456 kts 250°
2026-05-07 08:19 23.91456 59.85530 37823 ft 456 kts 250°
2026-05-07 08:19 23.89290 59.79057 37822 ft 456 kts 250°
2026-05-07 08:20 23.87113 59.72560 37821 ft 456 kts 250°
2026-05-07 08:20 23.84926 59.66047 37821 ft 456 kts 250°
2026-05-07 08:21 23.82742 59.59550 37820 ft 456 kts 250°
2026-05-07 08:21 23.80557 59.53061 37823 ft 456 kts 250°
2026-05-07 08:22 23.78269 59.46604 37822 ft 456 kts 249°
2026-05-07 08:22 23.75908 59.40177 37823 ft 456 kts 249°
2026-05-07 08:23 23.73586 59.33743 37817 ft 456 kts 249°
2026-05-07 08:23 23.71262 59.27294 37820 ft 456 kts 249°
2026-05-07 08:24 23.68952 59.20898 37814 ft 456 kts 249°
2026-05-07 08:24 23.66625 59.14458 37805 ft 456 kts 249°
2026-05-07 08:25 23.64293 59.08011 37807 ft 456 kts 249°
2026-05-07 08:25 23.61957 59.01565 37801 ft 456 kts 249°
2026-05-07 08:26 23.58454 58.91915 37803 ft 456 kts 249°
2026-05-07 08:26 23.56127 58.85518 37802 ft 456 kts 249°
2026-05-07 08:27 23.53773 58.79056 37798 ft 456 kts 249°
2026-05-07 08:27 23.51445 58.72673 37800 ft 456 kts 249°
2026-05-07 08:28 23.49100 58.66253 37798 ft 456 kts 248°
2026-05-07 08:28 23.46742 58.59810 37796 ft 456 kts 248°
2026-05-07 08:29 23.44390 58.53390 37798 ft 456 kts 248°
2026-05-07 08:29 23.42036 58.46975 37798 ft 456 kts 248°
2026-05-07 08:30 23.39529 58.40628 37802 ft 457 kts 247°
2026-05-07 08:30 23.37132 58.34266 37810 ft 457 kts 248°
2026-05-07 08:31 23.34731 58.27859 37813 ft 457 kts 248°
2026-05-07 08:31 23.32292 58.21462 37816 ft 457 kts 248°
2026-05-07 08:32 23.29861 58.15087 37820 ft 457 kts 248°
2026-05-07 08:32 23.27433 58.08733 37840 ft 457 kts 248°
2026-05-07 08:33 23.24998 58.02342 37865 ft 458 kts 248°
2026-05-07 08:33 23.22729 57.95860 37866 ft 458 kts 250°
2026-05-07 08:34 23.20497 57.89365 37888 ft 459 kts 249°
2026-05-07 08:34 23.18253 57.82880 37892 ft 459 kts 249°
2026-05-07 08:35 23.16012 57.76378 37913 ft 459 kts 250°
2026-05-07 08:35 23.13771 57.69878 37947 ft 459 kts 249°
2026-05-07 08:36 23.11526 57.63382 37943 ft 459 kts 249°
2026-05-07 08:36 23.09279 57.56882 37953 ft 459 kts 249°
2026-05-07 08:37 23.07031 57.50390 37949 ft 459 kts 249°
2026-05-07 08:37 23.04784 57.43913 37954 ft 459 kts 249°
2026-05-07 08:38 23.02524 57.37408 37959 ft 459 kts 249°
2026-05-07 08:38 23.00964 57.30776 37928 ft 457 kts 268°
2026-05-07 08:39 23.00966 57.23846 37970 ft 461 kts 268°
2026-05-07 08:39 23.00748 57.16900 37964 ft 461 kts 268°
2026-05-07 08:40 23.00776 57.09924 37968 ft 461 kts 270°
2026-05-07 08:40 23.00925 57.02945 37963 ft 462 kts 270°
2026-05-07 08:41 23.01080 56.96014 37963 ft 462 kts 270°
2026-05-07 08:41 23.01236 56.89046 37953 ft 461 kts 270°
2026-05-07 08:42 23.01389 56.82088 37943 ft 461 kts 270°
2026-05-07 08:42 23.01551 56.75114 37950 ft 462 kts 270°
2026-05-07 08:43 23.01713 56.68143 37934 ft 462 kts 270°
2026-05-07 08:43 23.01871 56.61180 37926 ft 462 kts 270°
2026-05-07 08:44 23.02028 56.54198 37928 ft 462 kts 270°
2026-05-07 08:44 23.02181 56.47232 37920 ft 462 kts 270°
2026-05-07 08:45 23.02331 56.40247 37913 ft 462 kts 270°
2026-05-07 08:45 23.02478 56.33320 37914 ft 462 kts 270°
2026-05-07 08:46 23.02608 56.26302 37913 ft 462 kts 270°
2026-05-07 08:46 23.02718 56.19370 37911 ft 462 kts 270°
2026-05-07 08:47 23.02843 56.12400 37908 ft 462 kts 270°
2026-05-07 08:47 23.02971 56.05437 37906 ft 462 kts 270°
2026-05-07 08:48 23.03096 55.98457 37898 ft 462 kts 270°
2026-05-07 08:48 23.03219 55.91475 37897 ft 462 kts 270°
2026-05-07 08:49 23.03331 55.84515 37892 ft 461 kts 270°
2026-05-07 08:49 23.03437 55.77547 37888 ft 461 kts 270°
2026-05-07 08:50 23.03550 55.70608 37890 ft 460 kts 270°
2026-05-07 08:50 23.03662 55.63651 37882 ft 460 kts 270°
2026-05-07 08:51 23.03770 55.56702 37880 ft 460 kts 270°
2026-05-07 08:51 23.03874 55.49758 37879 ft 460 kts 270°
2026-05-07 08:52 23.03966 55.42840 37873 ft 460 kts 270°
2026-05-07 08:52 23.04063 55.35895 37873 ft 460 kts 270°
2026-05-07 08:53 23.03833 55.28970 37860 ft 458 kts 261°
2026-05-07 08:53 23.02575 55.22185 37863 ft 458 kts 257°
2026-05-07 08:54 23.01218 55.15411 37855 ft 458 kts 258°
2026-05-07 08:54 22.99922 55.08637 37855 ft 458 kts 258°
2026-05-07 08:55 22.98604 55.01913 37853 ft 458 kts 257°
2026-05-07 08:55 22.97275 54.95162 37846 ft 458 kts 257°
2026-05-07 08:56 22.95942 54.88404 37849 ft 457 kts 257°
2026-05-07 08:56 22.94609 54.81664 37847 ft 457 kts 257°
2026-05-07 08:57 22.93271 54.74919 37848 ft 457 kts 257°
2026-05-07 08:57 22.91930 54.68168 37846 ft 457 kts 257°
2026-05-07 08:58 22.90587 54.61429 37844 ft 457 kts 257°
2026-05-07 08:58 22.89239 54.54676 37845 ft 457 kts 257°
2026-05-07 08:59 22.87896 54.47971 37844 ft 457 kts 257°
2026-05-07 08:59 22.86545 54.41234 37840 ft 457 kts 257°
2026-05-07 09:00 22.85196 54.34525 37841 ft 457 kts 257°
2026-05-07 09:00 22.83840 54.27796 37840 ft 457 kts 257°
2026-05-07 09:01 22.82481 54.21066 37839 ft 457 kts 257°
2026-05-07 09:01 22.81118 54.14333 37840 ft 456 kts 257°
2026-05-07 09:02 22.79986 54.08759 37837 ft 456 kts 257°
2026-05-07 09:02 22.78616 54.02036 37835 ft 456 kts 256°
2026-05-07 09:03 22.77150 53.95347 37839 ft 456 kts 257°
2026-05-07 09:03 22.75889 53.88610 37836 ft 457 kts 258°
2026-05-07 09:04 22.74600 53.81877 37834 ft 457 kts 257°
2026-05-07 09:04 22.73281 53.75144 37831 ft 457 kts 257°
2026-05-07 09:05 22.71964 53.68397 37832 ft 457 kts 257°
2026-05-07 09:05 22.70644 53.61664 37833 ft 457 kts 257°
2026-05-07 09:06 22.69326 53.54958 37834 ft 457 kts 257°
2026-05-07 09:06 22.67998 53.48215 37830 ft 457 kts 257°
2026-05-07 09:07 22.66670 53.41495 37831 ft 456 kts 257°
2026-05-07 09:07 22.65343 53.34788 37829 ft 455 kts 257°
2026-05-07 09:08 22.64014 53.28088 37825 ft 455 kts 257°
2026-05-07 09:08 22.62681 53.21380 37829 ft 455 kts 257°
2026-05-07 09:09 22.61345 53.14679 37828 ft 456 kts 257°
2026-05-07 09:09 22.60006 53.07974 37826 ft 456 kts 257°
2026-05-07 09:10 22.58664 53.01267 37834 ft 456 kts 257°
2026-05-07 09:10 22.57320 52.94569 37823 ft 456 kts 257°
2026-05-07 09:11 22.55980 52.87906 37820 ft 456 kts 257°
2026-05-07 09:11 22.54623 52.81174 37825 ft 456 kts 257°
2026-05-07 09:12 22.53270 52.74477 37823 ft 456 kts 257°
2026-05-07 09:12 22.51921 52.67813 37814 ft 456 kts 257°
2026-05-07 09:13 22.50564 52.61123 37814 ft 456 kts 257°
2026-05-07 09:13 22.49200 52.54419 37818 ft 456 kts 257°
2026-05-07 09:14 22.47836 52.47728 37820 ft 456 kts 257°
2026-05-07 09:14 22.46466 52.41017 37824 ft 456 kts 257°
2026-05-07 09:15 22.45101 52.34350 37819 ft 457 kts 257°
2026-05-07 09:15 22.43729 52.27663 37820 ft 456 kts 257°
2026-05-07 09:16 22.42351 52.20962 37821 ft 456 kts 257°
2026-05-07 09:16 22.41381 52.14196 37753 ft 456 kts 272°
2026-05-07 09:17 22.42308 52.07438 37828 ft 458 kts 275°
2026-05-07 09:17 22.42920 52.00588 37817 ft 459 kts 274°
2026-05-07 09:18 22.43775 51.93734 37817 ft 460 kts 277°
2026-05-07 09:18 22.44821 51.86916 37814 ft 460 kts 277°
2026-05-07 09:19 22.45868 51.80103 37816 ft 460 kts 277°
2026-05-07 09:19 22.46929 51.73270 37823 ft 460 kts 277°
2026-05-07 09:20 22.47987 51.66495 37804 ft 459 kts 277°
2026-05-07 09:20 22.49046 51.59695 37811 ft 458 kts 277°
2026-05-07 09:21 22.50104 51.52888 37820 ft 458 kts 277°
2026-05-07 09:21 22.51159 51.46085 37812 ft 458 kts 277°
2026-05-07 09:22 22.52205 51.39319 37811 ft 458 kts 277°
2026-05-07 09:22 22.53254 51.32513 37825 ft 458 kts 277°
2026-05-07 09:23 22.54299 51.25723 37820 ft 457 kts 277°
2026-05-07 09:23 22.55339 51.18941 37817 ft 457 kts 277°
2026-05-07 09:24 22.56377 51.12151 37812 ft 457 kts 277°
2026-05-07 09:24 22.57408 51.05384 37832 ft 455 kts 277°
2026-05-07 09:25 22.58430 50.98657 37815 ft 455 kts 277°
2026-05-07 09:25 22.59459 50.91866 37836 ft 455 kts 277°
2026-05-07 09:26 22.60476 50.85134 37818 ft 455 kts 277°
2026-05-07 09:26 22.61491 50.78399 37821 ft 454 kts 277°
2026-05-07 09:27 22.62503 50.71660 37830 ft 453 kts 277°
2026-05-07 09:28 22.64018 50.61535 37828 ft 453 kts 277°
2026-05-07 09:28 22.65019 50.54825 37823 ft 452 kts 277°
2026-05-07 09:29 22.66021 50.48085 37821 ft 452 kts 277°
2026-05-07 09:29 22.67018 50.41362 37826 ft 452 kts 277°
2026-05-07 09:30 22.68012 50.34634 37839 ft 452 kts 277°
2026-05-07 09:30 22.69003 50.27913 37833 ft 452 kts 277°
2026-05-07 09:31 22.69983 50.21238 37833 ft 452 kts 277°
2026-05-07 09:31 22.70970 50.14505 37848 ft 452 kts 277°
2026-05-07 09:32 22.71951 50.07785 37831 ft 452 kts 277°
2026-05-07 09:32 22.72930 50.01062 37852 ft 452 kts 277°
2026-05-07 09:33 22.73906 49.94344 37842 ft 450 kts 277°
2026-05-07 09:33 22.74868 49.87688 37837 ft 449 kts 277°
2026-05-07 09:34 22.75859 49.80971 37829 ft 449 kts 280°
2026-05-07 09:34 22.76845 49.77803 37781 ft 452 kts 292°
2026-05-07 09:34 22.78033 49.74673 37881 ft 450 kts 284°
2026-05-07 09:35 22.79388 49.68073 37840 ft 448 kts 276°
2026-05-07 09:35 22.80147 49.61371 37839 ft 447 kts 275°
2026-05-07 09:36 22.81274 49.54722 37836 ft 449 kts 278°
2026-05-07 09:36 22.82632 49.48102 37842 ft 450 kts 281°
2026-05-07 09:37 22.84194 49.41563 37835 ft 448 kts 282°
2026-05-07 09:37 22.85834 49.35042 37834 ft 448 kts 282°
2026-05-07 09:38 22.87488 49.28570 37837 ft 448 kts 282°
2026-05-07 09:38 22.88709 49.21963 37840 ft 445 kts 275°
2026-05-07 09:39 22.89454 49.15295 37839 ft 445 kts 273°
2026-05-07 09:39 22.90044 49.08618 37838 ft 445 kts 272°
2026-05-07 09:40 22.90587 49.01957 37842 ft 444 kts 272°
2026-05-07 09:40 22.91155 48.95284 37842 ft 443 kts 274°
2026-05-07 09:41 22.92039 48.88666 37840 ft 443 kts 276°
2026-05-07 09:41 22.93083 48.82119 37847 ft 443 kts 277°
2026-05-07 09:42 22.94190 48.75535 37845 ft 443 kts 277°
2026-05-07 09:42 22.95319 48.68945 37850 ft 443 kts 277°
2026-05-07 09:43 22.96451 48.62380 37849 ft 443 kts 277°
2026-05-07 09:43 22.97592 48.55799 37851 ft 443 kts 277°
2026-05-07 09:44 22.98727 48.49264 37853 ft 443 kts 277°
2026-05-07 09:44 22.99869 48.42734 37849 ft 441 kts 277°
2026-05-07 09:45 23.01026 48.36201 37854 ft 441 kts 277°
2026-05-07 09:45 23.02192 48.29659 37860 ft 441 kts 277°
2026-05-07 09:46 23.03362 48.23117 37853 ft 441 kts 277°
2026-05-07 09:46 23.04463 48.16586 37861 ft 439 kts 275°
2026-05-07 09:47 23.05220 48.10037 37861 ft 439 kts 274°
2026-05-07 09:47 23.06007 48.03459 37858 ft 439 kts 274°
2026-05-07 09:48 23.06802 47.96876 37883 ft 439 kts 274°
2026-05-07 09:48 23.07588 47.90318 37871 ft 438 kts 274°
2026-05-07 09:49 23.08565 47.83780 37863 ft 441 kts 282°
2026-05-07 09:49 23.11473 47.77919 37858 ft 457 kts 308°
2026-05-07 09:50 23.15508 47.74043 37937 ft 467 kts 315°
2026-05-07 09:50 23.21582 47.69066 37908 ft 472 kts 319°
2026-05-07 09:51 23.26157 47.65733 37841 ft 475 kts 321°
2026-05-07 09:51 23.28933 47.63793 37542 ft 469 kts 321°
2026-05-07 09:51 23.32551 47.61308 37125 ft 461 kts 321°
2026-05-07 09:51 23.34342 47.60082 36945 ft 460 kts 321°
2026-05-07 09:52 23.37094 47.58197 36636 ft 459 kts 321°
2026-05-07 09:52 23.39759 47.56376 36346 ft 460 kts 321°
2026-05-07 09:52 23.42467 47.54530 36074 ft 460 kts 320°
2026-05-07 09:52 23.45010 47.52473 35609 ft 452 kts 309°
2026-05-07 09:53 23.47031 47.49915 34843 ft 437 kts 300°
2026-05-07 09:53 23.48823 47.47270 34064 ft 434 kts 301°
2026-05-07 09:53 23.50708 47.44702 33200 ft 432 kts 303°
2026-05-07 09:53 23.52626 47.42214 32345 ft 427 kts 303°
2026-05-07 09:54 23.54488 47.39728 31501 ft 420 kts 302°
2026-05-07 09:54 23.56269 47.37221 30706 ft 414 kts 301°
2026-05-07 09:54 23.57985 47.34724 29828 ft 413 kts 301°
2026-05-07 09:54 23.59696 47.32207 28650 ft 409 kts 301°
2026-05-07 09:55 23.61373 47.29742 27513 ft 403 kts 302°
2026-05-07 09:55 23.63031 47.27307 26417 ft 396 kts 303°
2026-05-07 09:55 23.64661 47.24907 25359 ft 390 kts 303°
2026-05-07 09:55 23.66261 47.22544 24326 ft 385 kts 304°
2026-05-07 09:56 23.67818 47.20239 23337 ft 380 kts 304°
2026-05-07 09:56 23.69398 47.17900 22159 ft 375 kts 304°
2026-05-07 09:56 23.70914 47.15658 21058 ft 370 kts 304°
2026-05-07 09:56 23.72444 47.13395 19961 ft 362 kts 304°
2026-05-07 09:57 23.73921 47.11205 18933 ft 355 kts 303°
2026-05-07 09:57 23.75355 47.09079 17877 ft 350 kts 303°
2026-05-07 09:57 23.76786 47.06948 16733 ft 345 kts 303°
2026-05-07 09:57 23.78193 47.04850 15716 ft 339 kts 304°
2026-05-07 09:58 23.79556 47.02823 15194 ft 324 kts 304°
2026-05-07 09:58 23.80889 47.00840 14641 ft 324 kts 304°
2026-05-07 09:58 23.82222 46.98856 14126 ft 323 kts 304°
2026-05-07 09:58 23.83540 46.96892 14022 ft 321 kts 304°
2026-05-07 09:59 23.84861 46.94922 13963 ft 322 kts 304°
2026-05-07 09:59 23.86188 46.92941 13955 ft 323 kts 304°
2026-05-07 09:59 23.87579 46.91024 13914 ft 325 kts 314°
2026-05-07 09:59 23.89405 46.89569 13907 ft 325 kts 330°
2026-05-07 10:00 23.91430 46.88472 13946 ft 327 kts 332°
2026-05-07 10:00 23.93403 46.87245 13946 ft 326 kts 326°
2026-05-07 10:00 23.95312 46.85887 13953 ft 327 kts 325°
2026-05-07 10:00 23.97228 46.84566 13945 ft 327 kts 328°
2026-05-07 10:01 23.99198 46.83353 13945 ft 327 kts 331°
2026-05-07 10:01 24.01212 46.82219 13934 ft 327 kts 332°
2026-05-07 10:01 24.03261 46.81103 13954 ft 327 kts 332°
2026-05-07 10:01 24.05302 46.79991 13845 ft 328 kts 332°
2026-05-07 10:02 24.07331 46.78881 13629 ft 327 kts 332°
2026-05-07 10:02 24.09372 46.77765 13429 ft 326 kts 332°
2026-05-07 10:02 24.11396 46.76663 13224 ft 324 kts 332°
2026-05-07 10:02 24.13411 46.75569 13031 ft 323 kts 332°
2026-05-07 10:03 24.15414 46.74484 12827 ft 321 kts 332°
2026-05-07 10:03 24.17414 46.73401 12630 ft 320 kts 332°
2026-05-07 10:03 24.19415 46.72319 12418 ft 321 kts 332°
2026-05-07 10:03 24.21420 46.71234 12157 ft 319 kts 332°
2026-05-07 10:04 24.23387 46.70168 11912 ft 319 kts 333°
2026-05-07 10:04 24.25372 46.69091 11678 ft 318 kts 333°
2026-05-07 10:04 24.27376 46.68003 11432 ft 317 kts 333°
2026-05-07 10:04 24.29324 46.66945 11202 ft 316 kts 333°
2026-05-07 10:05 24.31287 46.65879 10966 ft 314 kts 333°
2026-05-07 10:05 24.33246 46.64817 10728 ft 313 kts 333°
2026-05-07 10:05 24.35206 46.63753 10488 ft 313 kts 333°
2026-05-07 10:05 24.37152 46.62694 10252 ft 311 kts 333°
2026-05-07 10:06 24.39086 46.61643 10096 ft 310 kts 333°
2026-05-07 10:06 24.41019 46.60591 10010 ft 309 kts 333°
2026-05-07 10:06 24.42931 46.59501 9995 ft 310 kts 330°
2026-05-07 10:06 24.44814 46.58342 9975 ft 310 kts 329°
2026-05-07 10:07 24.46693 46.57153 9967 ft 310 kts 329°
2026-05-07 10:07 24.48539 46.55990 9950 ft 312 kts 328°
2026-05-07 10:07 24.50404 46.54824 9710 ft 303 kts 328°
2026-05-07 10:07 24.52197 46.53700 9447 ft 290 kts 328°
2026-05-07 10:08 24.53906 46.52619 9185 ft 279 kts 328°
2026-05-07 10:08 24.55561 46.51564 8963 ft 274 kts 328°
2026-05-07 10:08 24.57205 46.50516 8720 ft 273 kts 328°
2026-05-07 10:08 24.58846 46.49472 8461 ft 272 kts 328°
2026-05-07 10:09 24.60487 46.48431 8219 ft 272 kts 328°
2026-05-07 10:09 24.62114 46.47403 8099 ft 269 kts 328°
2026-05-07 10:09 24.63742 46.46374 8021 ft 269 kts 328°
2026-05-07 10:09 24.65392 46.45384 7977 ft 272 kts 337°
2026-05-07 10:10 24.67232 46.44983 7880 ft 271 kts
2026-05-07 10:10 24.68995 46.45606 7940 ft 268 kts 34°
2026-05-07 10:10 24.70443 46.46895 8055 ft 271 kts 44°
2026-05-07 10:10 24.71915 46.48208 8008 ft 274 kts 35°
2026-05-07 10:11 24.73587 46.49193 7982 ft 273 kts 23°
2026-05-07 10:11 24.75386 46.49886 7987 ft 274 kts 17°
2026-05-07 10:11 24.77212 46.50464 7979 ft 273 kts 18°
2026-05-07 10:11 24.78891 46.51347 7865 ft 270 kts 42°
2026-05-07 10:12 24.80072 46.52884 7961 ft 262 kts 62°
2026-05-07 10:12 24.80770 46.54730 7929 ft 261 kts 85°
2026-05-07 10:12 24.80639 46.56643 7676 ft 245 kts 116°
2026-05-07 10:12 24.79722 46.58129 7464 ft 229 kts 137°
2026-05-07 10:13 24.78605 46.59334 7353 ft 224 kts 135°
2026-05-07 10:13 24.77648 46.60696 7181 ft 226 kts 123°
2026-05-07 10:13 24.76981 46.62219 7053 ft 228 kts 114°
2026-05-07 10:13 24.76477 46.63866 6994 ft 227 kts 109°
2026-05-07 10:14 24.76011 46.65536 6995 ft 228 kts 115°
2026-05-07 10:14 24.75151 46.66968 6880 ft 222 kts 139°
2026-05-07 10:14 24.73927 46.67964 6977 ft 218 kts 149°
2026-05-07 10:14 24.72664 46.68937 7001 ft 225 kts 141°
2026-05-07 10:15 24.71502 46.70080 6986 ft 224 kts 136°
2026-05-07 10:15 24.70343 46.71250 6995 ft 227 kts 140°
2026-05-07 10:15 24.69124 46.72297 6965 ft 225 kts 145°
2026-05-07 10:15 24.67815 46.73233 6961 ft 223 kts 149°
2026-05-07 10:16 24.66472 46.74107 6968 ft 226 kts 150°
2026-05-07 10:16 24.65119 46.74976 6957 ft 224 kts 149°
2026-05-07 10:16 24.63777 46.75839 6959 ft 223 kts 150°
2026-05-07 10:16 24.62430 46.76702 6945 ft 224 kts 150°
2026-05-07 10:17 24.61085 46.77558 6968 ft 225 kts 150°
2026-05-07 10:17 24.59725 46.78416 6967 ft 225 kts 150°
2026-05-07 10:17 24.58365 46.79269 6964 ft 225 kts 150°
2026-05-07 10:17 24.57009 46.80118 6956 ft 224 kts 150°
2026-05-07 10:18 24.55650 46.80971 6963 ft 225 kts 150°
2026-05-07 10:18 24.54308 46.81811 6936 ft 223 kts 149°
2026-05-07 10:18 24.52948 46.82666 6954 ft 222 kts 149°
2026-05-07 10:18 24.51609 46.83511 6955 ft 221 kts 149°
2026-05-07 10:19 24.50387 46.84526 6864 ft 222 kts 129°
2026-05-07 10:19 24.49776 46.86026 6546 ft 219 kts 96°
2026-05-07 10:19 24.50110 46.87540 6632 ft 202 kts 60°
2026-05-07 10:19 24.51203 46.88546 6541 ft 213 kts 28°
2026-05-07 10:20 24.52615 46.89016 6229 ft 210 kts 14°
2026-05-07 10:20 24.54032 46.89326 6039 ft 207 kts 13°
2026-05-07 10:20 24.55421 46.89686 5948 ft 204 kts 17°
2026-05-07 10:20 24.56788 46.90123 5971 ft 205 kts 21°
2026-05-07 10:21 24.58125 46.90652 5945 ft 206 kts 16°
2026-05-07 10:21 24.59560 46.90605 5907 ft 209 kts 346°
2026-05-07 10:21 24.60891 46.89944 5967 ft 211 kts 333°
2026-05-07 10:21 24.62171 46.89177 5955 ft 209 kts 333°
2026-05-07 10:22 24.63468 46.88437 5946 ft 210 kts 334°
2026-05-07 10:22 24.64756 46.87738 5879 ft 204 kts 335°
2026-05-07 10:22 24.65978 46.87057 6015 ft 185 kts 333°
2026-05-07 10:22 24.67024 46.86441 7163 ft 171 kts 331°
2026-05-07 10:23 24.68138 46.85776 7371 ft 191 kts 331°
2026-05-07 10:23 24.69357 46.85063 7272 ft 202 kts 334°
2026-05-07 10:23 24.70652 46.84503 6882 ft 202 kts 340°
2026-05-07 10:23 24.71960 46.84005 6458 ft 196 kts 342°
2026-05-07 10:24 24.73249 46.83517 6018 ft 192 kts 342°
2026-05-07 10:24 24.74485 46.83037 5586 ft 192 kts 343°
2026-05-07 10:24 24.75734 46.82528 5128 ft 191 kts 342°
2026-05-07 10:24 24.76970 46.82018 4688 ft 188 kts 342°
2026-05-07 10:25 24.78191 46.81515 4284 ft 185 kts 342°
2026-05-07 10:25 24.79386 46.81014 4098 ft 186 kts 341°
2026-05-07 10:25 24.80602 46.80539 4018 ft 184 kts 346°
2026-05-07 10:25 24.81827 46.80181 3993 ft 182 kts 342°
2026-05-07 10:26 24.82961 46.79573 3976 ft 180 kts 332°
2026-05-07 10:26 24.84043 46.78875 3974 ft 179 kts 330°
2026-05-07 10:26 24.85128 46.78178 4037 ft 182 kts 331°
2026-05-07 10:26 24.86230 46.77479 3853 ft 183 kts 332°
2026-05-07 10:27 24.87327 46.76781 3643 ft 182 kts 330°
2026-05-07 10:27 24.88417 46.76092 3417 ft 179 kts 332°
2026-05-07 10:27 24.89495 46.75407 3211 ft 178 kts 331°
2026-05-07 10:27 24.90566 46.74723 2979 ft 177 kts 332°
2026-05-07 10:28 24.91637 46.74049 2760 ft 177 kts 333°
2026-05-07 10:28 24.92689 46.73379 2524 ft 177 kts 334°
2026-05-07 10:28 24.93731 46.72691 2268 ft 169 kts 332°
2026-05-07 10:28 24.94688 46.72090 2048 ft 145 kts 333°
2026-05-07 10:29 24.95314 46.71701 2044 ft 70 kts 331°
2026-05-07 10:29 24.95693 46.71463 2041 ft 56 kts 329°
2026-05-07 10:29 24.95953 46.71241 2047 ft 34 kts 304°
2026-05-07 10:30 24.96002 46.71104 2042 ft 0 kts 272°
2026-05-07 10:30 24.96003 46.71083 2042 ft 5 kts 269°
2026-05-07 10:30 24.95993 46.71039 2039 ft 7 kts 252°
2026-05-07 10:31 24.95983 46.70968 2036 ft 11 kts 282°
2026-05-07 10:31 24.96041 46.70898 2043 ft 14 kts 327°
2026-05-07 10:31 24.96125 46.70845 2040 ft 16 kts 330°
2026-05-07 10:31 24.96232 46.70778 2042 ft 20 kts 330°
2026-05-07 10:32 24.96356 46.70697 2037 ft 19 kts 331°
2026-05-07 10:32 24.96455 46.70609 2041 ft 17 kts 282°
2026-05-07 10:32 24.96428 46.70519 2038 ft 12 kts 241°
2026-05-07 10:32 24.96387 46.70437 2041 ft 6 kts 241°
2026-05-07 10:33 24.96386 46.70436 2041 ft 0 kts 241°
2026-05-07 10:33 24.96384 46.70432 2040 ft 2 kts 238°
2026-05-07 10:33 24.96371 46.70417 2041 ft 4 kts 220°
2026-05-07 10:34 24.96335 46.70408 2037 ft 7 kts 176°
2026-05-07 10:34 24.96288 46.70428 2041 ft 7 kts 151°
2026-05-07 10:34 24.96231 46.70462 2040 ft 11 kts 151°
2026-05-07 10:34 24.96174 46.70457 2038 ft 7 kts 224°
2026-05-07 10:35 24.96160 46.70425 2037 ft 5 kts 253°
2026-05-07 10:35 24.96153 46.70392 2041 ft 0 kts 258°